Change the Weather History Date:

Friday, June 7, 2013

  Actual Average Record
Temperature  
Mean Temperature 64 °F 62 °F  
Max Temperature 77 °F 76 °F 97 °F (2010)
Min Temperature 50 °F 49 °F 33 °F (1915)
Degree Days  
Heating Degree Days 1 4  
Month to date heating degree days 25 32  
Since 1 June heating degree days 25 32  
Since 1 July heating degree days 6128 6245  
Cooling Degree Days 0 1  
Month to date cooling degree days 6 7  
Year to date cooling degree days 28 17  
Since 1 June cooling degree days 6 7  
Growing Degree Days 13 (Base 50)    
Moisture  
Dew Point 40 °F    
Average Humidity 47    
Maximum Humidity 71    
Minimum Humidity 23    
Precipitation  
Precipitation T in 0.10 in 1.10 in (1898)
Month to date precipitation 0.16 0.66  
Year to date precipitation 2.89 5.77  
Snow  
Snow 0.00 in 0.00 in 0.00 in (2002)
Month to date snowfall 0.0 0.0  
Since 1 June snowfall 0.0 0.0  
Since 1 July snowfall 29.6 37.7  
Snow Depth 0.00 in    
Sea Level Pressure  
Sea Level Pressure 29.89 in    
Wind  
Wind Speed 7 mph (SE)    
Max Wind Speed 33 mph    
Max Gust Speed 38 mph    
Visibility 10 miles    
Events Rain , Thunderstorm    
T = Trace of Precipitation, MM = Missing Value Source: NWS Daily Summary

Daily Weather History Graph

Daily Weather History Graph

Search for Another Location

Airport or City:

Trip Planner

Search our weather history database for the weather conditions in past years. The results will help you decide how hot, cold, wet, or windy it might be!

Date:

Astronomy

Jun. 07, 2013 Rise Set
Actual Time 5:33 AM MDT 8:21 PM MDT
Civil Twilight 5:02 AM MDT 8:53 PM MDT
Nautical Twilight 4:22 AM MDT 9:33 PM MDT
Astronomical Twilight 3:36 AM MDT 10:18 PM MDT
Moon 4:57 AM MDT (6/7) 7:38 PM MDT (6/7)
Length of Visible Light 15h 51m
Length of Day
14h 48m
Waning Crescent, 1% of the Moon is Illuminated
Jun 7
Waning Crescent
Jun 8
New
Jun 16
First Quarter
Jun 23
Full
Jun 29
Last Quarter

Hourly Weather History & Observations

Time (MDT) Temp. Dew Point Humidity Pressure Visibility Wind Dir Wind Speed Gust Speed Precip Events Conditions
12:54 AM 59.0 °F 45.0 °F 60% 29.96 in 10.0 mi ENE 5.8 mph - N/A   Mostly Cloudy
1:54 AM 55.9 °F 41.0 °F 57% 29.96 in 10.0 mi NNE 8.1 mph - N/A   Scattered Clouds
2:54 AM 55.0 °F 39.9 °F 57% 29.95 in 10.0 mi NNW 5.8 mph - N/A   Partly Cloudy
3:54 AM 52.0 °F 42.1 °F 69% 30.00 in 10.0 mi North 5.8 mph - N/A   Clear
4:54 AM 52.0 °F 41.0 °F 66% 29.95 in 10.0 mi North 5.8 mph - N/A   Clear
5:54 AM 51.1 °F 41.0 °F 68% 29.96 in 10.0 mi North 8.1 mph - N/A   Partly Cloudy
6:54 AM 57.0 °F 43.0 °F 59% 29.94 in 10.0 mi Calm Calm - N/A   Mostly Cloudy
7:54 AM 61.0 °F 42.1 °F 50% 29.95 in 10.0 mi Calm Calm - N/A   Mostly Cloudy
8:54 AM 64.0 °F 44.1 °F 48% 29.94 in 10.0 mi SE 8.1 mph - N/A   Mostly Cloudy
9:54 AM 66.9 °F 43.0 °F 42% 29.91 in 10.0 mi SSE 4.6 mph - N/A   Mostly Cloudy
10:54 AM 72.0 °F 43.0 °F 35% 29.89 in 10.0 mi Variable 4.6 mph - N/A   Scattered Clouds
11:54 AM 73.0 °F 42.1 °F 33% 29.86 in 10.0 mi SE 16.1 mph 19.6 mph N/A   Mostly Cloudy
12:54 PM 72.0 °F 41.0 °F 33% 29.85 in 10.0 mi South 10.4 mph 17.3 mph N/A   Mostly Cloudy
1:15 PM 71.6 °F 41.0 °F 33% 30.09 in 10.0 mi SSW 16.1 mph - N/A Thunderstorm Thunderstorm
1:45 PM 66.2 °F 39.2 °F 37% 30.12 in 10.0 mi West 24.2 mph 38.0 mph N/A Thunderstorm Thunderstorm
1:54 PM 66.0 °F 39.9 °F 38% 29.93 in 10.0 mi West 24.2 mph 29.9 mph 0.00 in Rain , Thunderstorm Light Thunderstorms and Rain
2:09 PM 66.2 °F 39.2 °F 37% 30.10 in 10.0 mi WSW 20.7 mph - 0.00 in Rain Light Rain
2:54 PM 73.0 °F 34.0 °F 24% 29.85 in 10.0 mi SW 21.9 mph - 0.00 in   Mostly Cloudy
3:54 PM 73.0 °F 34.0 °F 24% 29.83 in 10.0 mi SSW 15.0 mph - N/A   Mostly Cloudy
4:54 PM 73.9 °F 34.0 °F 23% 29.81 in 10.0 mi Calm Calm - N/A   Mostly Cloudy
5:54 PM 75.9 °F 35.1 °F 23% 29.78 in 10.0 mi Calm Calm - N/A   Mostly Cloudy
6:54 PM 73.9 °F 34.0 °F 23% 29.75 in 10.0 mi ESE 4.6 mph - N/A   Scattered Clouds
7:54 PM 72.0 °F 37.0 °F 28% 29.75 in 10.0 mi SSE 4.6 mph - N/A   Scattered Clouds
8:54 PM 66.0 °F 37.9 °F 36% 29.76 in 10.0 mi ESE 4.6 mph - N/A   Scattered Clouds
9:54 PM 63.0 °F 37.9 °F 40% 29.77 in 10.0 mi East 3.5 mph - N/A   Partly Cloudy
10:54 PM 63.0 °F 36.0 °F 37% 29.73 in 10.0 mi SE 5.8 mph - N/A   Clear
11:54 PM 60.1 °F 39.9 °F 47% 29.73 in 10.0 mi ESE 6.9 mph - N/A   Clear